STARLINK-1363, 45568

Orbit data source: Space-Track

STARLINK-1363, 45568 is a payload satellite owned by SpaceX/Seattle (US) in LEO that was launched on Wed, 22 Apr 2020 UTC via an FALCON 9 launch vehicle from the Air Force Eastern Test Range (AFETR). Payload-class satellites include a variety of spacecraft equipped with specific instruments for various scientific and technological missions. These include communications satellites like Starlink; space stations such as the ISS; scientific satellites like the Hubble; Earth observation satellites from companies like Planet Labs, Umbra, and HawkEye 360; GPS; miniature CubeSats for education and research; and military/defense satellites.

Loading next visibility...
Identifier
45568, 2020-025AP
Orbit
LEO
Country
Flag of USUS
Related business
Manufacturer
SpaceX/Seattle
Mission
Partially operational Commercial Communications
Bus & Motor
STARLINK, Unknown motor
Mass
260 kg wet, ~248 kg dry
Launch date (UTC)
2020-04-22 (6 years ago)
Launch vehicle
FALCON 9
Launch site
Air Force Eastern Test Range (AFETR)
Object type
Payload
Rocket body
Debris
Shape & HBR
Box + 1 Pan, 10.1 m
Radar Cross Section
13.562 m², Large (>1 m²)

Expand to show TLE details & history
Last TLE update: 11 hours ago

TLE from 11 hours ago
0 STARLINK-1363
1 45568U 20025AP  25300.50002315  .01832729  00000-0  45440-1 0  9993
2 45568  53.0553 323.1010 0001332  53.9417 183.1724 15.36541192  5838
Epoch: 2025-10-27T12:00Z
TLE epoch observation values (Epoch: 2025-10-27T12:00:02.000Z)
Latitude
-42.35414°
Longitude
-30.02282°
Altitude
471.383 km
Speed
7.63 km/s
True Right ascension
12h 24m 20s
True Declination
-42° 10' 33"
Sunlit
Object was in daylight at epoch
Visualization orbit readout
Latitude
Unknown
Longitude
Unknown
Altitude
Unknown
Speed
Unknown
Apparent Right ascension
Unknown
Apparent Declination
Unknown
Sunlit
N/A
Visualization observer readout
Local Sidereal Time
18:19:44
Azimuth
Unknown
Elevation
Unknown
Doppler factor
Unknown
Orbital elements
Apogee altitude
457.531 km
Perigee altitude
455.71 km
Semi-major axis
6,834.758 km
Eccentricity
0.00013
Inclination
53.0553°
RAAN
323.101°
Arg. of periapsis
53.9417°
True anomaly
183.17156°
Mean anomaly
183.1724°
Eccentric anomaly
183.17198°
Mean motion
3.84113 °/min
Orbital period
93.72 mins
BSTAR
0.04544
Loading maneuver chart data...
Computing Atmospheric mass density...

Documentation

Showing up to 5 results
|